Regional Weather Roundup
Issued by NWS

Home | Current Version | Previous Version | Text Only | Print | Product List | Glossary On
Versions: 1 2 3 4 5 6 7 8 9 10 11 12 13 14 15 16 17 18 19 20 21 22 23 24 25 26 27 28 29 30 31 32 33 34 35 36 37 38 39 40 41 42 43 44 45 46 47 48 49 50
799
ASUS45 KPSR 231310
RWRAZ

ARIZONA HOURLY REGIONAL WEATHER ROUNDUP
NATIONAL WEATHER SERVICE PHOENIX AZ
600 AM MST THU NOV 23 2017

NOTE: FAIR INDICATES FEW OR NO CLOUDS BELOW 12,000 FEET WITH NO
SIGNIFICANT WEATHER AND/OR OBSTRUCTIONS TO VISIBILITY.

AZZ001>003-036-231400-
NORTHWEST ARIZONA

CITY           SKY/WX    TMP DP  RH WIND       PRES   REMARKS
BULLHEAD CITY  CLEAR     63  36  36 CALM      30.10S
KINGMAN        CLEAR     44  28  53 CALM      30.23F
$$

AZZ004>008-015-016-018-231400-
NORTH CENTRAL ARIZONA

CITY           SKY/WX    TMP DP  RH WIND       PRES   REMARKS
GRAND CANYON   MOCLDY    23  19  85 CALM      30.42S
WILLIAMS       PTCLDY    30  23  74 S10       30.39F WCI  21
PRESCOTT       PTCLDY    40  29  64 S6        30.33R
FLAGSTAFF      PTCLDY    25  20  81 CALM      30.43S
PAYSON           N/A     54  30  40 N6        30.32S HAZE
PAGE           PTCLDY    41  29  62 CALM      30.35S
$$

AZZ009>014-017-231400-
NORTHEAST ARIZONA

CITY           SKY/WX    TMP DP  RH WIND       PRES   REMARKS
WINSLOW        MOCLDY    30  20  66 CALM      30.38S
SAINT JOHNS    CLOUDY    33  21  61 S3        30.38R
WINDOW ROCK    PTCLDY    24  19  81 CALM      30.41S
SHOW LOW       PTCLDY    32  23  69 CALM      30.41F
$$

AZZ540-542>544-546-548-231400-
GREATER PHOENIX AREA

CITY           SKY/WX    TMP DP  RH WIND       PRES   REMARKS
PHOENIX        CLEAR     61  34  36 E5        30.07S
BUCKEYE        CLEAR     52  23  32 N5        30.08S
GLENDALE       CLEAR     54  37  54 CALM      30.09
LUKE AFB       CLEAR     54  34  47 CALM      30.07S
DEER VALLEY    CLEAR     60  32  34 CALM      30.08S
SCOTTSDALE     CLEAR     57  36  45 W3        30.10R
MESA-FALCON    CLEAR     63  30  29 NE9       30.09
MESA-GATEWAY   CLEAR     52  21  30 E6        30.10S
CHANDLER       CLEAR     54  36  50 CALM      30.09
$$

AZZ539-553-231400-
SOUTHWEST MARICOPA COUNTY AND PINAL COUNTY

CITY           SKY/WX    TMP DP  RH WIND       PRES   REMARKS
CASA GRANDE    NOT AVBL
$$

AZZ503-504-507>509-231400-
SOUTHEAST ARIZONA

CITY           SKY/WX    TMP DP  RH WIND       PRES   REMARKS
TUCSON         CLEAR     55  20  25 SE6       30.16S
DAVIS-MONTHAN  CLEAR     61  21  21 SE8       30.14R
RYAN FIELD     CLEAR     54  23  30 SE7       30.14
NOGALES        CLEAR     45  19  35 CALM      30.20S
SIERRA VISTA   PTCLDY    48  19  31 W3        30.26S
DOUGLAS        PTCLDY    34  13  41 CALM      30.25R
SAFFORD        PTCLDY    41  16  36 N7        30.22F
$$

AZZ532-231400-
SOUTHWEST ARIZONA

CITY           SKY/WX    TMP DP  RH WIND       PRES   REMARKS
YUMA           CLEAR     62  37  39 CALM      30.02S
$$

CAZ041-043-047-048-061-525>527-560>570-231400-
SOUTHERN CALIFORNIA

CITY           SKY/WX    TMP DP  RH WIND       PRES   REMARKS
DOWNTOWN L.A.  CLEAR     69  39  33 N5        30.00S
L.A. AIRPORT   CLEAR     70  40  33 NE6       30.00S
SAN DIEGO      CLEAR     62  42  47 NW3       30.01S
BURBANK        CLEAR     62  42  47 CALM      30.04S
ONTARIO        CLEAR     61  41  47 NE5       30.05S
RIVERSIDE      CLEAR     63  40  42 NE5       30.05S
PALM SPRINGS   CLEAR     66  41  40 NW5       30.06S
EL CENTRO NAS  CLEAR     55  32  41 W7        30.04S
IMPERIAL       CLEAR     56  38  50 W6        30.02S
BLYTHE         CLEAR     58  30  34 W5        30.07S
NEEDLES        CLEAR     65  37  35 NW6       30.10S
$$

NVZ020-UTZ003-231400-
SOUTHERN NEVADA-UTAH

CITY           SKY/WX    TMP DP  RH WIND       PRES   REMARKS
LAS VEGAS      PTCLDY    57  37  47 SW5       30.18F
SALT LAKE CITY PTCLDY    49  40  71 SE10      30.27F
$$

NMZ009-TXZ055-231400-
NEW MEXICO-WEST TEXAS

CITY           SKY/WX    TMP DP  RH WIND       PRES   REMARKS
ALBUQUERQUE    CLOUDY    41  28  60 E5        30.34R
EL PASO        MOCLDY    44  27  51 NE8       30.25S
$$


........................KEY........................
SKY/WX - SKY CONDITION/WEATHER
TMP    - TEMPERATURE IN FAHRENHEIT
DP     - DEW POINT IN FAHRENHEIT
RH     - RELATIVE HUMIDITY IN PERCENT
WIND   - DIRECTION AND SPEED IN MILES PER HOUR (MPH)
VRB    - VARIABLE WIND DIRECTION
PRES   - MEAN SEA LEVEL PRESSURE IN INCHES OF MERCURY
         F - FALLING PRESSURE   R - RISING PRESSURE
         S - STEADY PRESSURE
VSB    - VISIBILITY IN MILES
HX     - HEAT INDEX IN FAHRENHEIT
WCI    - WIND CHILL INDEX IN FAHRENHEIT
TC     - TEMPERATURE IN CELSIUS WHICH IS ALSO KNOWN AS
         TEMPERATURE IN CENTIGRADE
AFB    - AIR FORCE BASE
         LUKE AFB IS LUKE AIR FORCE BASE
         DAVIS-MONTHAN IS DAVIS-MONTHAN AIR FORCE BASE
NAS    - NAVAL AIR STATION
         EL CENTRO NAS IS EL CENTRO NAVAL AIR STATION
N/A    - NOT AVAILABLE





USA.gov is the U.S. government's official web portal to all federal, state and local government web resources and services.